Regional Weather Roundup
Issued by NWS

Home | Current Version | Previous Version | Text Only | Print | Product List | Glossary On
Versions: 1 2 3 4 5 6 7 8 9 10 11 12 13 14 15 16 17 18 19 20 21 22 23 24 25 26 27 28 29 30 31 32 33 34 35 36 37 38 39 40 41 42 43 44 45 46 47 48 49 50
000
ASUS45 KTFX 231510
RWRMT
MONTANA REGIONAL WEATHER ROUNDUP
NATIONAL WEATHER SERVICE GREAT FALLS MT
900 AM MDT SAT JUL 23 2016

NOTE: "FAIR" INDICATES FEW OR NO CLOUDS BELOW 12000 FEET WITH NO
SIGNIFICANT WEATHER AND/OR OBSTRUCTIONS TO VISIBILITY.

MTZ001>007-043-231600-
WEST OF THE DIVIDE

CITY           SKY/WX    TMP DP  RH WIND       PRES   REMARKS
KALISPELL      PTSUNNY   55  49  80 E6        30.15R
MISSOULA       SUNNY     64  46  52 CALM      30.20R
BUTTE          SUNNY     58  36  43 NW12      30.26R
MULLAN PASS    MOSUNNY   50  44  80 CALM      30.26R
ANACONDA         N/A     61  37  41 W12G18    30.23S
DEER LODGE       N/A     63  39  42 S5        30.24S
EUREKA           N/A     64  46  52 SE9       30.13S
HAMILTON         N/A     63  45  51 CALM      30.20S
LIBBY            N/A     55  50  82 CALM      30.16S
PLAINS           N/A     55  52  90 CALM      30.17R
RONAN            N/A     64  52  65 CALM      30.21R
$$

MTZ008-052>055-231600-
SOUTHWEST MONTANA

CITY           SKY/WX    TMP DP  RH WIND       PRES   REMARKS
BOZEMAN        SUNNY     63  45  51 N3        30.18S
DILLON         SUNNY     60  43  53 CALM      30.22R
W YELLOWSTONE  SUNNY     59  37  44 W3        30.27S
ENNIS          SUNNY     63  37  39 CALM      30.27R
THREE FORKS      N/A     67   2   7 SW2       30.14R
TWIN BRIDGES     N/A     64  35  34 N5        30.18R
$$

MTZ009-010-012-014-046-048-049-054-231600-
EAST SLOPES AND CENTRAL MONTANA

CITY           SKY/WX    TMP DP  RH WIND       PRES   REMARKS
CUT BANK       MOSUNNY   66  45  46 NW18      30.08R
GREAT FALLS    MOSUNNY   71  39  31 W17G24    30.07R
MALMSTROM AFB  MOSUNNY   68  39  34 W20       30.08R
HELENA         SUNNY     69  40  34 W18       30.15R
CHOTEAU          N/A     68  41  37 NW22      30.10R
CONRAD           N/A     68  46  45 W16       30.09R
$$

MTZ011-013-016-021-045-047-050-051-231600-
NORTH CENTRAL MONTANA

CITY           SKY/WX    TMP DP  RH WIND       PRES   REMARKS
HAVRE          SUNNY     70  47  43 W23       29.94R
LEWISTOWN      SUNNY     67  40  37 W25G32    30.06R
N BAR RANCH      N/A     66  39  37 NW21      30.08R
CHINOOK          N/A     70  46  43 W22G31    29.91R
$$

MTZ017>020-022>027-061-062-231600-
NORTHEAST MONTANA

CITY           SKY/WX    TMP DP  RH WIND       PRES   REMARKS
GLASGOW        SUNNY     71  46  40 W16G25    29.87S
JORDAN           N/A     72  45  37 W15       29.95R
SIDNEY         CLOUDY    71  58  63 W14       29.87R
WOLF POINT     SUNNY     74  48  39 W20G30    29.88R
PLENTYWOOD       N/A     70  55  60 W14       29.82S
POPLAR           N/A     72  54  53 W17       29.87R
SCOBEY           N/A     69  54  58 W10       29.85R
$$

MTZ028>42-056>058-231600-
SOUTHCENTRAL AND SOUTHEAST MONTANA

CITY           SKY/WX    TMP DP  RH WIND       PRES   REMARKS
BAKER          SUNNY     73  53  49 NW23G32   29.93R
BILLINGS       SUNNY     71  45  39 SW9       30.05R
LIVINGSTON     SUNNY     68  41  37 W22       30.13S
MILES CITY     SUNNY     76  45  33 NW15      29.96R
EKALAKA          N/A     73  46  38 NW14      29.95R
FORSYTH          N/A     72  46  40 W9        29.98R
LAUREL           N/A     72  41  32 W3        30.05R
ROUNDUP          N/A     69  39  33 W16       29.95R
$$

REGIONAL REPORTS...DAKOTAS

CITY           SKY/WX    TMP DP  RH WIND       PRES   REMARKS
WILLISTON      SUNNY     75  60  59 W14       29.84R
MINOT          CLOUDY    69  64  84 S6        29.77F THUNDER
DICKINSON      CLOUDY    66  62  87 N7        29.85R
BEACH            N/A     72  57  60 NW21      29.93R
CROSBY           N/A     72  66  83 SW17G23   29.81S
WATFORD CITY     N/A    N/A N/A N/A MISG        N/A
BISMARCK       PTSUNNY   69  64  84 NE17G23   29.78F
GRAND FORKS    CLOUDY    73  65  75 NE8       29.80F
FARGO          CLOUDY    79  67  66 SE12      29.76F
BUFFALO SD       N/A     76  58  53 NW26G36   29.83R
RAPID CITY     SUNNY     83  56  39 N26G35    29.86S
$$

REGIONAL REPORTS...WYOMING/IDAHO/WASHINGTON

CITY           SKY/WX    TMP DP  RH WIND       PRES   REMARKS
GILLETTE       SUNNY     71  42  35 NW17      30.06R
SHERIDAN       SUNNY     75  41  29 N7        30.05F
BUFFALO WY     SUNNY     71  40  32 N17       30.11R
CODY           SUNNY     66  43  42 CALM      30.13S
YELLOWSTONE LA   N/A     57  37  47 CALM      30.33S
IDAHO FALLS    SUNNY     63  43  48 SW18      30.21R
SALMON         SUNNY     63  39  42 CALM      30.20F
BOISE          SUNNY     63  43  48 NW6       30.19R
SPOKANE        MOSUNNY   57  46  66 S12       30.18R
$$

REGIONAL REPORTS...ALBERTA

CITY           SKY/WX    TMP DP  RH WIND       PRES   REMARKS
EDMONTON       CLOUDY    63  48  59 W7        29.91R
CALGARY        MOSUNNY   63  50  63 N5        30.00R
LETHBRIDGE     MOSUNNY   64  50  59 W16       30.03R
MEDICINE HAT   MOSUNNY   64  55  72 W8        29.91R
WATERTON GATE    N/A     61  45  55 SW15G24     N/A
CARDSTON         N/A     66  43  42 W8          N/A
MILK RIVER       N/A     64  50  59 NW20G25     N/A
$$

REGIONAL REPORTS...SASKATCHEWAN

CITY           SKY/WX    TMP DP  RH WIND       PRES   REMARKS
SWIFT CURRENT  LGT RAIN  57  57 100 NW20G25   29.80S
REGINA         CLOUDY    64  61  88 W17G26    29.73R
SASKATOON      PTSUNNY   64  64 100 N13       29.73F
CYPRESS HILLS    N/A     55  45  67 NW8         N/A
ROCKGLEN         N/A     64  52  63 W20G25      N/A
ASSINIBOIA       N/A     64  57  77 W12         N/A
$$



USA.gov is the U.S. government's official web portal to all federal, state and local government web resources and services.